Laughlin Air Force Base Del Rio US
ICAO: KDLF
IATA: DLF
Category: Large
Scheduled Services: No

Elevation: 1082 ft
TransAlt. 18000 ft.

Airport Communications:
DEL RIO APP:119.6
ATIS:114.4
CLNC DEL:120.5
DEL RIO DEP:119.6
GND:138.75
PMSV METRO:35.46
PTD:37.22
TWR:125.2

KDLF Zoom In..

Runways:

(A) RW 13C length 8852 ft width 150 ft
ILS 110.30 / hdg 128

(B) RW 13L length 8315 ft width 150 ft
---- / hdg 128

(C) RW 13R length 6571 ft width 150 ft
---- / hdg 128

(D) RW 31C length 8852 ft width 150 ft
ILS 108.90 / hdg 308

(E) RW 31L length 6571 ft width 150 ft
---- / hdg 308

(F) RW 31R length 8315 ft width 150 ft
---- / hdg 308

Location; KDLF
Day. 19 / Time. 02.56 Zulu
* Altimeter: 29.87
* Temperature: 33° c. 91.4°f.
* Wind from: 150° Speed 08 kn.
Dewpoint: 13° c.
Visibility: 10 Statute Miles.
Clouds: Clear (automated report).

KDLF 190256Z 15008KT 10SM CLR 33/13 A2987 RMK AO2A SLP100 T03300131 53007


Wind From 150°
Speed 08 kn.

 
 
jpsmedia.com for Web Design worldairports.se 2018   terms of use